Location: ??? ????????
(25.6698°N, 32.6871°E)
Time: 13:59:30
(UTC+00:00)

Daily predictions for brighter satellites

Satellite Brightness Start Highest point End
(mag) Time Altitude Azimuth Time Altitude Azimuth Time Altitude Azimuth
Cosmos 1656 Rocket 3.9 16:57:01 10° S 17:02:22 49° ESE 17:07:42 10° NNE
Palapa 6 Rocket 4.4 16:56:25 10° W 17:03:40 71° S 17:11:25 10° E
Cosmos 1891 Rocket 4.5 17:00:23 10° N 17:06:33 79° E 17:12:35 10° S
Hubble Space Telescope 1.6 17:10:49 10° SW 17:14:07 28° SSE 17:17:25 10° E
CZ-2C R/B 3.7 17:15:25 10° SE 17:17:58 22° ENE 17:20:31 10° NNE
IRIDIUM 104 4.3 17:13:09 10° S 17:18:22 86° E 17:23:36 10° N
Cosmos 44 4.3 17:18:26 10° SSE 17:21:21 18° ESE 17:24:19 10° ENE
Cosmos 1328 3.6 17:22:42 10° S 17:26:18 87° W 17:29:57 10° N
SEDSat Delta rocket 4.1 17:24:44 10° W 17:29:30 44° SSW 17:34:10 13° SE
Meteor 1-24 Rocket 4.4 17:24:34 10° SSW 17:30:08 59° W 17:35:31 10° N
Cosmos 2034 Rocket 4.3 17:24:32 10° N 17:30:40 48° E 17:36:44 10° SSE
SJ-6B 3.4 17:27:56 10° S 17:31:23 50° W 17:34:48 10° NNW
Tiangong -0.1 17:31:05 10° W 17:34:02 32° NNW 17:37:00 10° NE
Cosmos 2082 Rocket 2.5 17:30:30 10° N 17:36:03 51° ENE 17:40:38 15° SE
Cosmos 2369 Rocket 2.3 17:31:14 10° S 17:36:46 54° ESE 17:42:18 10° NNE
Cosmos 1300 Rocket 3.7 17:33:17 10° N 17:37:30 50° E 17:41:10 13° SSE
USA 267 3.3 17:33:15 11° SE 17:39:35 85° SW 17:46:09 10° NW
CZ-4 R/B 1.1 17:36:22 12° SSE 17:39:45 65° ENE 17:43:25 10° N
Tsikada Rocket 4.0 17:34:51 10° S 17:41:08 72° E 17:47:31 10° N
Cosmos 1777 Rocket 4.0 17:36:51 10° S 17:41:55 55° ESE 17:47:00 10° NNE
Terra 3.7 17:41:13 12° E 17:42:22 13° ENE 17:44:28 10° NE
Cosmos 1461 3.1 17:39:10 10° NNW 17:43:10 62° WSW 17:46:35 13° SSE
Resurs 01 Rocket 2.4 17:39:56 10° S 17:44:11 51° W 17:48:29 10° NNW
Delta 7925 Rocket 3.3 17:41:09 10° WSW 17:45:39 55° SSE 17:49:15 17° E
BREEZE-M R/B 3.4 17:41:25 10° NW 17:45:58 41° SW 17:48:19 15° SSE
Cosmos 1378 Rocket 4.4 17:46:23 21° SE 17:48:10 29° E 17:51:52 10° NNE
NATO 3D Rocket 4.1 17:44:26 10° W 17:49:46 57° S 17:54:39 20° ESE
USA 186 1.8 17:49:28 35° ESE 17:49:58 40° ENE 17:52:32 10° N
Okean-O 4.4 17:51:55 15° E 17:52:28 15° ENE 17:55:01 10° NE
Okean O Rocket 2.8 17:56:56 23° E 17:57:48 24° ENE 18:01:19 10° NNE
Cosmos 2263 4.1 17:54:25 10° S 18:00:02 64° ESE 18:05:37 10° NNE
SPOT 5 3.1 17:56:43 21° SSE 18:00:04 59° ENE 18:05:16 10° N
Cosmos 158 Rocket 4.0 17:55:16 10° NNW 18:00:05 69° WSW 18:04:05 15° S
PAYLOAD B 4.1 17:57:56 16° SSE 18:02:24 80° ENE 18:07:55 10° N
CZ-4B R/B 3.5 18:03:45 29° ENE 18:03:51 29° ENE 18:07:02 10° NNE
Cosmos 1606 1.9 18:02:41 10° N 18:05:44 87° E 18:06:26 50° S
Cosmos 1340 Rocket 3.8 18:07:40 10° NNE 18:10:37 28° ENE 18:10:37 28° ENE
Cosmos 1570 Rocket 4.0 18:07:15 10° N 18:12:27 62° ENE 18:14:30 35° SE
Helios 1B rocket 3.2 18:16:58 30° ENE 18:16:58 30° ENE 18:19:49 10° N
ERS-1 Rocket 3.5 18:16:05 36° ESE 18:17:07 40° ENE 18:21:45 10° N
ADEOS 4.4 18:25:08 15° S 18:29:08 45° W 18:34:06 10° NNW
OAO 2 Rocket 3.2 18:25:45 10° WSW 18:30:43 82° NNW 18:33:07 30° ENE
Cosmos 990 Rocket 3.8 18:29:23 31° S 18:31:51 77° ESE 18:37:01 10° NNE
CZ-4C R/B 2.3 18:34:44 10° SW 18:38:24 47° WNW 18:42:41 10° NNE
SWIFT 4.3 18:36:01 10° SW 18:36:43 14° SW 18:36:43 14° SW
IRS-1A Rocket 4.2 18:43:24 58° ESE 18:44:03 62° ENE 18:49:30 10° N
Helios 1A 3.2 18:41:47 10° N 18:45:40 60° WNW 18:46:02 57° WSW
Nadezhda 4 Rocket 4.0 18:45:07 53° ESE 18:45:58 58° E 18:52:09 10° NNE
Okean 2 Rocket 4.3 18:44:43 10° NNE 18:47:18 29° NE 18:47:18 29° NE
Aureole 1 Rocket 4.2 18:49:35 48° E 18:49:35 48° E 18:55:50 10° NNE
Hubble Space Telescope 2.2 18:50:10 10° WSW 18:52:05 28° WSW 18:52:05 28° WSW
Meteor 1-11 4.1 18:54:26 63° S 18:55:26 85° E 19:01:16 10° N
Cosmos 2151 Rocket 4.2 18:51:29 10° N 18:54:52 48° NNE 18:54:52 48° NNE
Cosmos 2221 Rocket 3.8 18:57:47 68° NW 18:57:47 68° NW 19:01:56 10° N
Cosmos 2285 Rocket 3.8 18:56:22 53° S 18:57:57 81° ESE 19:04:22 10° NNE
CZ-4B R/B 4.5 18:57:17 22° SW 18:59:47 34° W 19:04:39 10° NW
ASTEX 1 3.9 19:00:09 10° N 19:03:45 50° NNE 19:03:45 50° NNE
COSMOS 2406 4.3 19:01:32 10° NW 19:06:46 37° WSW 19:08:18 32° SW
Chandra Rocket (1) 3.3 18:49:31 10° WSW 19:08:42 73° SSE 19:09:46 63° ESE
Cosmos 1428 Rocket 4.4 19:10:48 72° ENE 19:10:48 72° ENE 19:16:38 10° N
Ariane Rocket 4.2 19:14:10 32° NNE 19:14:10 32° NNE 19:17:15 10° N
Terra 2.8 19:19:52 41° W 19:19:52 41° W 19:23:55 10° NNW
Cosmos 2180 Rocket 4.4 19:15:44 10° N 19:21:56 79° W 19:22:03 78° WSW
Yuri Rocket 4.4 19:18:07 10° WSW 19:27:59 89° NNW 19:29:12 68° ENE
Okean-O 4.4 19:29:18 28° WNW 19:29:18 28° WNW 19:32:17 10° NW
Okean O Rocket 3.9 19:34:12 18° W 19:34:12 18° W 19:36:55 10° NW
NOSS 3-4 (A) 4.0 19:42:10 10° NNW 19:49:40 84° W 19:49:40 84° W
NOSS 3-4 (C) 4.0 19:42:14 10° NNW 19:49:39 84° W 19:49:39 84° W
CENTAUR R/B 4.3 23:01:56 23° NNE 23:01:56 23° NNE 23:04:13 10° NNE
SL-16 R/B 4.3 23:03:12 22° NNE 23:03:12 22° NNE 23:05:09 10° NNE
Cosmos 2333 Rocket 4.2 23:09:54 24° NNE 23:09:54 24° NNE 23:12:06 10° NNE
Resurs 1-4 Rocket 4.4 23:14:30 10° NE 23:16:25 19° ENE 23:16:25 19° ENE
Milstar 3 Cent rocket 4.0 23:27:36 33° E 23:27:36 33° E 23:30:24 10° E
CZ-2D R/B 4.0 23:33:33 10° NNE 23:36:04 26° NE 23:36:04 26° NE
Cosmos 1844 Rocket 4.2 23:37:03 10° N 23:41:05 31° NE 23:41:05 31° NE
Cosmos 2360 Rocket 3.7 23:50:12 31° N 23:50:12 31° N 23:53:09 10° N
